Wind_Speed
35 35 35 36 36 36 36 34 33 32 32 32 32 29 26 24 24 24 25 25 23 22 21 20 20 20 21 23 25 25 24 24 25 25 24 23 22 21 18 16 16 17
35 35 35 36 36 36 37 36 34 34 33 34 33 30 26 24 23 24 24 23 21 21 21 19 18 19 22 25 26 26 24 24 25 26 26 24 23 20 17 16 16 18
34 35 36 36 35 36 38 37 35 35 34 34 33 30 26 24 24 23 24 22 21 20 19 16 14 15 19 23 25 25 24 24 24 24 24 23 21 19 17 17 18 19
33 34 35 36 35 35 37 37 35 35 35 33 32 30 27 25 25 23 22 22 21 20 18 16 15 15 17 20 22 23 23 23 22 21 21 21 19 18 18 19 19 18
33 34 35 36 34 33 34 34 33 34 34 31 29 29 27 26 24 22 20 21 21 20 17 17 18 19 19 20 22 23 22 22 21 20 21 19 17 17 18 19 19 18
32 33 34 35 34 31 31 31 31 32 32 29 28 27 26 26 24 21 20 19 20 19 18 18 19 20 20 20 20 21 22 22 21 21 21 19 16 18 18 18 18 18
31 32 32 32 32 30 28 28 29 29 28 27 27 26 25 24 23 22 21 19 19 19 18 18 19 20 20 20 19 20 21 21 21 21 22 20 19 20 20 20 21 21
29 30 30 29 29 30 29 29 30 29 26 25 26 26 24 24 23 23 23 21 21 20 19 19 21 21 20 21 22 22 22 21 21 21 21 20 20 21 22 23 24 25
28 28 28 25 25 27 26 27 28 28 26 24 25 25 24 24 22 20 21 20 20 20 21 22 24 24 24 24 25 24 23 23 22 20 19 19 20 21 23 24 25 25
27 27 27 23 22 22 19 19 22 23 23 22 22 23 23 23 21 20 19 18 18 19 21 22 23 24 25 25 26 25 23 22 22 21 21 21 21 22 23 24 25 24
26 26 27 25 22 19 14 17 18 18 19 20 20 21 22 22 21 21 20 19 19 20 20 21 21 23 23 23 24 24 23 22 22 22 22 22 22 22 23 24 24 23
26 27 27 26 24 19 12 13 17 18 19 21 21 21 21 21 20 20 20 20 20 20 22 23 24 26 26 24 24 24 24 24 23 23 22 21 21 22 23 23 24 23
26 27 27 26 25 21 14 10 13 17 20 21 21 21 22 21 20 19 20 22 22 21 23 25 25 26 25 24 24 24 24 24 24 23 21 21 22 22 23 24 25 25
24 25 25 25 25 22 17 12 10 15 18 20 20 20 22 22 21 22 22 22 23 23 23 24 25 25 23 23 23 23 24 24 24 24 23 23 23 24 25 26 26 26
23 23 23 24 24 22 19 16 12 12 15 17 18 19 22 23 24 25 25 24 24 24 23 25 27 26 24 24 24 24 24 24 25 25 26 26 26 26 26 26 26 26
22 22 22 22 23 22 20 19 16 14 13 15 16 18 21 23 24 25 24 24 24 24 24 27 28 27 26 26 26 25 25 25 26 27 28 28 27 26 26 26 26 26
21 21 21 21 22 21 20 19 19 17 16 16 16 18 20 21 21 22 23 23 23 23 25 27 27 26 27 28 28 27 27 27 27 28 29 29 27 26 26 26 26 26
21 21 21 21 21 21 20 19 19 19 17 17 18 18 19 19 20 21 23 24 23 23 26 28 28 28 28 28 28 29 30 28 27 27 28 28 28 27 26 26 26 27
20 21 20 20 21 21 20 20 20 18 15 15 18 19 19 19 19 21 23 24 24 25 28 30 29 29 29 29 29 30 31 29 27 27 28 29 28 27 26 26 27 27
20 20 20 20 20 20 20 20 21 20 18 15 16 19 18 18 18 19 21 23 25 26 29 30 30 31 31 30 30 32 33 32 29 28 29 29 28 27 26 26 28 28
20 20 20 20 20 20 20 21 22 23 22 19 15 14 15 16 18 20 21 22 23 27 30 31 31 32 33 33 32 32 34 34 31 30 30 29 29 29 27 27 27 28
21 20 20 20 21 20 20 21 22 23 23 22 19 15 13 13 15 17 20 21 22 26 31 33 32 33 34 35 34 34 35 34 32 31 30 30 31 30 29 27 26 27
22 22 22 21 21 21 21 20 22 24 24 24 24 22 20 18 16 15 17 20 22 26 29 32 35 37 36 36 36 36 36 35 33 32 31 32 32 32 31 28 26 27
24 23 23 22 22 22 22 22 21 23 25 25 25 25 26 25 24 21 18 18 20 25 29 31 34 38 40 39 37 37 38 38 35 33 31 30 30 31 30 28 27 29
27 25 24 24 23 23 23 23 22 22 24 25 25 26 26 26 26 25 23 20 19 20 24 28 31 36 39 40 38 37 38 39 38 36 33 30 30 29 28 28 29 30
28 27 25 25 25 24 24 24 23 23 23 25 26 26 25 26 26 25 24 23 22 21 20 21 24 28 34 37 39 40 40 41 41 39 35 33 32 30 28 28 30 31
Wind_Direction
285 283 280 279 279 278 275 271 268 264 260 259 261 262 261 260 261 261 259 256 248 238 235 238 243 242 235 232 235 236 229 222 220 220 221 224 225 223 221 222 226 227
286 285 284 281 279 277 274 271 266 262 261 261 260 260 259 258 258 257 255 254 247 239 235 236 240 239 234 231 227 222 216 214 218 221 223 222 220 220 220 218 221 228
289 288 287 284 281 277 274 270 264 261 261 261 260 260 258 256 255 252 253 252 244 239 237 235 236 234 228 224 218 214 213 215 218 219 218 218 218 219 221 222 225 231
291 290 290 288 284 278 274 270 265 261 260 259 259 259 255 253 253 250 250 247 239 238 239 235 234 232 228 224 221 219 218 215 214 216 217 217 219 220 222 228 230 232
291 292 293 292 287 279 274 271 266 262 260 258 257 256 254 253 251 248 246 241 235 236 238 235 235 232 229 228 225 222 219 215 213 217 219 218 221 227 229 231 232 232
293 294 295 294 288 280 273 270 266 263 261 257 254 254 253 252 249 245 242 237 231 231 231 230 231 230 227 224 221 217 215 217 216 217 219 216 219 231 234 233 236 239
297 299 299 296 290 282 272 266 263 262 261 256 251 250 250 249 246 238 236 237 232 225 224 225 225 224 223 221 220 218 215 218 219 218 219 216 216 228 235 236 240 244
303 306 305 300 292 285 275 265 261 259 257 253 248 246 245 245 244 238 237 237 230 224 225 227 225 224 223 221 222 222 218 221 226 222 219 220 225 233 239 241 243 244
308 313 313 304 295 292 280 264 258 255 252 248 243 241 242 245 246 241 235 231 227 231 232 228 226 227 227 227 228 226 222 225 228 226 224 229 237 242 243 244 244 245
311 316 319 313 307 304 283 256 252 250 244 239 237 238 241 245 243 233 230 231 233 239 234 223 222 228 229 228 229 228 226 226 228 230 235 240 243 244 245 246 247 247
314 317 323 323 321 317 287 251 246 244 235 230 233 238 241 243 238 229 229 236 238 240 234 223 224 230 230 227 227 229 231 233 235 236 240 243 245 246 248 249 250 251
317 319 326 329 328 327 309 259 242 234 227 228 236 241 238 237 234 228 228 235 240 241 239 237 234 230 228 229 232 235 237 240 241 241 241 244 247 249 252 253 255 256
318 321 326 329 328 329 327 290 249 235 231 235 241 241 235 232 232 230 230 236 244 244 244 245 235 225 226 233 236 238 240 243 245 244 244 247 250 252 254 256 258 259
319 322 325 327 327 327 328 315 273 246 239 241 242 239 235 235 237 237 237 240 245 246 246 241 229 225 235 240 239 240 242 245 247 246 247 249 250 251 253 255 258 259
319 322 324 325 325 325 323 317 297 265 246 241 239 238 238 239 240 240 239 240 242 243 241 234 229 232 240 240 240 242 243 245 247 247 247 247 247 250 252 255 257 258
318 319 321 321 321 321 320 317 309 289 261 245 243 242 241 242 241 239 236 236 240 240 235 232 234 238 240 240 241 242 241 243 246 247 247 246 247 250 253 255 256 255
315 315 316 317 317 318 316 314 311 300 277 256 252 251 248 247 245 241 235 234 238 238 230 230 235 239 240 241 241 239 239 241 245 249 250 249 249 252 254 256 255 254
311 311 311 312 313 313 313 310 310 306 287 263 257 258 257 255 251 246 240 238 239 237 232 234 240 241 240 242 242 240 238 240 247 252 252 251 251 252 255 256 255 255
308 307 307 307 308 310 310 307 304 306 299 274 259 259 261 258 254 249 246 244 242 238 237 240 243 243 242 244 244 241 237 240 248 253 252 251 252 255 257 257 256 256
306 305 304 303 304 305 307 305 300 301 306 295 269 261 266 269 265 259 253 248 245 242 242 243 243 243 245 246 246 242 238 240 248 252 251 251 254 256 258 257 256 255
301 301 302 301 301 301 302 303 302 300 303 304 290 267 261 266 269 265 258 251 246 246 248 248 247 245 245 246 246 243 239 241 248 252 251 253 256 258 258 256 255 253
296 296 297 299 300 300 299 298 300 301 301 303 301 286 266 267 272 266 258 253 248 246 248 250 250 249 247 247 247 244 241 243 248 250 251 254 256 257 256 253 252 252
293 293 293 295 296 298 300 297 296 298 300 301 302 299 293 294 299 292 276 267 261 256 255 252 250 248 247 247 247 245 243 245 247 248 249 253 256 256 254 254 255 255
290 290 291 292 292 293 297 298 297 297 298 299 301 302 301 301 302 305 303 292 275 265 262 259 255 252 250 249 249 248 245 244 245 246 248 252 255 255 253 250 250 250
286 287 288 290 291 291 292 295 297 296 297 298 299 301 303 303 302 303 304 302 294 281 271 265 261 259 256 255 256 257 253 248 245 244 244 244 243 244 246 244 243 245
281 283 285 285 287 289 289 291 294 295 295 296 297 297 299 299 300 301 300 299 299 299 296 287 277 269 263 262 263 264 261 256 251 246 242 240 241 244 248 250 249 250
Height
5778 5777 5776 5775 5775 5774 5773 5774 5774 5774 5773 5772 5771 5770 5772 5773 5775 5776 5775 5775 5774 5773 5773 5773 5774 5775 5776 5777 5778 5779 5781 5782 5784 5785 5787 5788 5790 5791 5792 5794 5795 5796
5774 5773 5772 5771 5771 5770 5769 5770 5770 5770 5769 5769 5767 5767 5768 5770 5772 5773 5773 5773 5772 5771 5771 5771 5771 5772 5773 5774 5776 5777 5779 5780 5782 5783 5785 5786 5788 5789 5791 5792 5793 5794
5771 5770 5769 5768 5767 5766 5765 5765 5765 5765 5765 5765 5765 5765 5766 5767 5768 5769 5770 5771 5771 5769 5769 5769 5770 5770 5771 5772 5774 5775 5777 5779 5780 5781 5783 5785 5786 5788 5788 5790 5791 5792
5768 5767 5765 5764 5763 5761 5760 5760 5760 5761 5761 5761 5763 5764 5763 5763 5765 5766 5768 5769 5769 5767 5767 5767 5768 5769 5770 5771 5773 5774 5775 5777 5778 5779 5781 5783 5784 5785 5786 5787 5789 5790
5765 5764 5762 5760 5758 5756 5755 5755 5756 5756 5757 5759 5761 5762 5761 5761 5762 5764 5765 5766 5766 5766 5766 5765 5766 5767 5768 5769 5771 5773 5774 5775 5776 5778 5779 5781 5782 5782 5784 5785 5786 5788
5762 5760 5758 5756 5753 5751 5750 5751 5751 5752 5754 5756 5759 5759 5759 5759 5760 5761 5762 5762 5763 5764 5764 5764 5764 5764 5766 5768 5770 5772 5773 5774 5775 5777 5778 5779 5780 5780 5782 5783 5783 5784
5759 5757 5755 5752 5750 5748 5747 5747 5747 5749 5751 5753 5755 5756 5756 5756 5757 5758 5759 5759 5760 5760 5761 5762 5762 5762 5765 5767 5769 5770 5771 5773 5773 5774 5776 5777 5778 5779 5780 5781 5782 5782
5756 5754 5751 5749 5746 5745 5744 5744 5744 5745 5747 5750 5751 5753 5753 5753 5754 5756 5756 5757 5757 5757 5759 5760 5760 5761 5763 5766 5767 5768 5770 5771 5771 5772 5774 5775 5776 5777 5778 5779 5780 5780
5754 5752 5749 5746 5744 5742 5741 5740 5740 5742 5744 5746 5748 5749 5750 5751 5752 5753 5754 5755 5755 5756 5758 5759 5759 5760 5763 5764 5765 5765 5768 5769 5768 5769 5771 5772 5773 5775 5775 5776 5777 5778
5751 5749 5747 5744 5742 5740 5738 5737 5738 5739 5741 5743 5745 5746 5747 5749 5750 5751 5752 5753 5753 5754 5756 5758 5759 5759 5760 5761 5762 5762 5765 5766 5766 5767 5769 5770 5771 5772 5773 5773 5774 5775
5749 5747 5745 5742 5740 5738 5736 5736 5736 5737 5739 5741 5742 5744 5745 5746 5747 5748 5749 5750 5751 5752 5753 5756 5758 5757 5756 5758 5759 5760 5761 5763 5764 5765 5766 5767 5768 5769 5770 5771 5771 5772
5747 5745 5743 5741 5739 5737 5735 5735 5735 5736 5738 5739 5740 5742 5743 5743 5744 5745 5747 5748 5749 5750 5750 5752 5755 5755 5754 5756 5756 5757 5759 5760 5761 5762 5763 5764 5765 5766 5767 5767 5768 5769
5745 5744 5742 5740 5738 5737 5735 5734 5735 5736 5737 5738 5739 5740 5741 5741 5742 5743 5744 5745 5746 5748 5748 5748 5750 5751 5752 5753 5754 5755 5756 5757 5758 5759 5760 5761 5762 5763 5764 5764 5765 5766
5744 5743 5741 5740 5738 5736 5735 5734 5734 5735 5735 5736 5737 5738 5738 5739 5740 5741 5742 5744 5744 5745 5746 5746 5747 5748 5749 5750 5751 5752 5753 5754 5755 5756 5757 5758 5759 5760 5761 5762 5763 5764
5743 5742 5740 5739 5737 5736 5735 5734 5734 5734 5734 5735 5735 5736 5736 5736 5738 5739 5740 5741 5742 5742 5743 5744 5744 5745 5746 5747 5748 5749 5751 5752 5753 5754 5755 5756 5756 5757 5758 5759 5760 5761
5742 5741 5739 5738 5737 5735 5735 5734 5733 5733 5733 5733 5733 5733 5733 5734 5735 5736 5737 5738 5738 5739 5740 5741 5741 5742 5744 5745 5746 5747 5748 5750 5751 5752 5753 5754 5754 5755 5755 5756 5757 5757
5742 5740 5739 5737 5736 5735 5734 5733 5732 5732 5731 5731 5731 5730 5731 5732 5733 5734 5734 5735 5735 5736 5737 5738 5738 5740 5741 5742 5744 5745 5746 5747 5749 5750 5750 5751 5751 5751 5752 5752 5753 5754
5741 5740 5738 5737 5735 5734 5733 5732 5731 5730 5729 5729 5729 5729 5729 5730 5731 5732 5732 5732 5733 5734 5734 5734 5735 5737 5738 5740 5741 5742 5743 5745 5746 5747 5747 5747 5748 5748 5748 5749 5749 5750
5740 5739 5737 5736 5734 5733 5732 5731 5730 5728 5727 5727 5727 5727 5727 5728 5729 5729 5729 5729 5730 5731 5731 5731 5733 5734 5735 5737 5738 5739 5740 5741 5742 5743 5743 5744 5744 5745 5745 5746 5746 5747
5739 5738 5736 5735 5734 5732 5731 5730 5728 5727 5726 5726 5725 5725 5726 5726 5726 5727 5727 5727 5727 5727 5728 5729 5730 5731 5732 5733 5734 5736 5737 5738 5739 5739 5740 5740 5741 5741 5742 5742 5743 5744
5737 5736 5735 5734 5733 5731 5730 5728 5727 5726 5725 5725 5724 5724 5725 5725 5724 5724 5724 5724 5725 5725 5725 5726 5726 5727 5728 5729 5730 5732 5733 5734 5735 5736 5737 5737 5737 5738 5739 5739 5740 5740
5734 5734 5733 5732 5731 5730 5729 5728 5726 5725 5724 5724 5723 5723 5723 5722 5722 5722 5722 5722 5723 5723 5722 5722 5723 5724 5725 5726 5727 5728 5729 5730 5732 5733 5734 5734 5735 5735 5736 5736 5737 5737
5731 5731 5730 5730 5729 5728 5727 5727 5725 5724 5723 5722 5721 5720 5720 5720 5719 5720 5720 5720 5720 5720 5719 5719 5719 5719 5720 5722 5722 5724 5725 5727 5728 5729 5730 5731 5731 5732 5732 5733 5734 5734
5728 5728 5727 5727 5726 5726 5725 5724 5724 5722 5721 5721 5720 5719 5718 5717 5717 5717 5717 5717 5717 5716 5716 5716 5716 5716 5716 5717 5718 5719 5720 5722 5724 5725 5727 5728 5728 5727 5728 5730 5730 5728
5725 5725 5725 5724 5723 5723 5722 5722 5721 5720 5719 5718 5718 5717 5716 5715 5715 5715 5715 5715 5714 5713 5713 5712 5712 5712 5713 5714 5714 5715 5716 5717 5719 5721 5722 5723 5723 5723 5724 5725 5725 5723
5722 5722 5722 5721 5720 5720 5720 5719 5719 5718 5717 5716 5715 5715 5715 5714 5713 5713 5712 5712 5712 5711 5710 5710 5709 5709 5710 5711 5711 5712 5712 5713 5714 5716 5717 5717 5719 5720 5720 5719 5720 5719